Regional Weather Roundup
Issued by NWS State College, PA

Home | Current Version | Previous Version | Graphics & Text | Print | Product List | Glossary On
Versions: 1 2 3 4 5 6 7 8 9 10 11 12 13 14 15 16 17 18 19 20 21 22 23 24 25 26 27 28 29 30 31 32 33 34 35 36 37 38 39 40 41 42 43 44 45 46 47 48 49 50
000
ASUS41 KCTP 281710
RWRCTP

REGIONAL WEATHER ROUNDUP
NATIONAL WEATHER SERVICE STATE COLLEGE PA
100 PM EDT FRI AUG 28 2015

Note: "fair" indicates few or no clouds below 12,000 feet with no
significant weather and/or obstructions to visibility.

* = STATION THAT DOES NOT REPORT PRECIPITATION /E.G. RAIN...SNOW...ETC/
    THUNDER OR FOG.

PAZ002>004-007>009-013>016-020>023-029>032-281800-
WESTERN PENNSYLVANIA

CITY           SKY/WX    TMP DP  RH WIND       PRES   REMARKS
ERIE           SUNNY     70  54  56 NW6       30.22F
MEADVILLE      MOSUNNY   70  54  56 W6        30.24F
FRANKLIN*      MOSUNNY   73  54  49 W7        30.25F
NEW CASTLE     FAIR      74  57  55 CALM      30.23F
BEAVER COUNTY  MOSUNNY   72  55  56 CALM      30.23F
BUTLER*        MOSUNNY   73  55  53 S3        30.24F
PITTSBURGH INT MOSUNNY   73  51  46 S3        30.21F
PITTSBURGH     MOSUNNY   75  46  35 MISG      30.21F
INDIANA*       PTSUNNY   72  55  56 N5        30.25F
LATROBE        MOSUNNY   73  50  43 VRB5      30.22F
WASHINGTON CO* MOSUNNY   75  52  43 E5        30.22F
$$

PAZ004>006-010>012-017>019-024>028-033>037-041-042-045-046-049>053-281800-
CENTRAL PENNSYLVANIA

CITY           SKY/WX    TMP DP  RH WIND       PRES   REMARKS
BRADFORD       PTSUNNY   69  50  50 VRB5      30.25S
DUBOIS         PTSUNNY   70  53  54 NW6       30.24F
CLEARFIELD     PTSUNNY   71  52  50 VRB3      30.24
JOHNSTOWN      SUNNY     71  50  47 VRB3      30.25F
ALTOONA        CLOUDY    74  51  44 VRB6      30.24F
STATE COLLEGE  MOSUNNY   70  57  64 CALM      30.24F
WILLIAMSPORT   PTSUNNY   74  54  49 VRB6      30.20F
SELINSGROVE    MOSUNNY   76  58  53 E3        30.21F
FT INDIANTOWN  MOSUNNY   76  57  50 VRB5      30.20F
CAPITAL CITY   PTSUNNY   76  55  48 NW5       30.20F
HARRISBURG     MOSUNNY   79  56  45 W7        30.19F
YORK           PTSUNNY   77  58  51 VRB3      30.21F
$$

PAZ038>040-043-044-047-048-054-055-060>062-067>071-281800-
EASTERN PENNSYLVANIA

CITY           SKY/WX    TMP DP  RH WIND       PRES   REMARKS
SCRANTON       MOSUNNY   73  52  47 N7        30.22F
MOUNT POCONO   PTSUNNY   65  50  58 NW7       30.24F
ALLENTOWN      PTSUNNY   73  55  53 NW5       30.20F
QUAKERTOWN*    PTSUNNY   73  55  53 NW6       30.21F
READING        PTSUNNY   76  56  49 N8        30.19F
LANCASTER      MOSUNNY   77  57  50 N7        30.20F
COATESVILLE    PTSUNNY   75  55  50 NW5       30.22F
POTTSTOWN      PTSUNNY   74  57  55 N5        30.21F
BLUE BELL      MOSUNNY   79  57  47 NW5       30.19F
DOYLESTOWN     PTSUNNY   74  55  51 VRB3      30.19F
WILLOW GROVE   NOT AVBL
NORTH PHILA    MOSUNNY   81  53  37 VRB6      30.20F
PHILADELPHIA   NOT AVBL
$$



USA.gov is the U.S. government's official web portal to all federal, state and local government web resources and services.